{"data":{"norad_id":60207,"intl_designator":"2024-125E","name":"R5-S2","alt_names":[],"object_type":"PAYLOAD","status":"ACTIVE","operator":null,"country":"US","launch_date":"2024-07-04","launch_site_code":"AFWTR","launch_vehicle":null,"mission":null,"orbit_class":"UNKNOWN","rcs_meters":null,"size_class":null,"mass_kg":null,"dimensions":null,"purposes":[],"wikipedia_slug":null,"has_3d_model":false,"image_url":null,"decayed_at":null,"tle_current":{"epoch":"2026-05-25T02:43:08.093568Z","epoch_age_seconds":65004,"freshness":"FRESH","line1":"1 60207U 24125E   26145.11328812  .00015740  00000+0  34439-3 0  9995","line2":"2 60207  97.2401 357.1450 0014481 317.9674  42.0463 15.44111617105624","mean_motion":15.44111617,"eccentricity":0.0014481,"inclination_deg":97.2401,"raan_deg":357.145,"arg_perigee_deg":317.9674,"mean_anomaly_deg":42.0463,"bstar":0.00034439,"rev_number":10562,"period_min":93.257507044583,"perigee_km":424.12502057965,"apogee_km":443.85430181581,"semimajor_km":6812.1266611977,"source":"CELESTRAK","updated_at":"2026-05-25T13:38:01.927292Z"}}}